Flag for Colombia Weather past 2 weeks in Barranquilla, Colombia

Now
79 °F

Fog.


Feels Like: 82 °F
Forecast: 79 / 87 °F
Wind: 3 mph from North

Location: Barranquilla / Ernestocortissoz

Current Time: Jul 7, 2015 at 7:06:30 AM

Latest Report: Jul 7, 2015 at 6:00 AM


Visibility: 5 mi

Pressure: 29.83 "Hg

Humidity: 89%

Dew point: 75 °F

Location of BarranquillaLocation

Historic Weather in Barranquilla — Graph

°F

Barranquilla temperature yesterday

Maximum temperature yesterday: 91 °F (at 11:00 AM)
Minimum temperature yesterday: 79 °F (at 3:00 AM)
Average temperature yesterday: 83 °F

Past Weeks' High & Low Weather Summary

 TemperatureHumidityPressure
High97 °F (Jun 24, 12:00 PM)100% (Jul 1, 5:00 AM)29.89 "Hg (Jul 1, 5:00 AM)
Low77 °F (Jul 1, 5:00 AM)53% (Jun 29, 1:00 PM)29.65 "Hg (Jul 3, 5:00 PM)
Average84 °F77%29.79 "Hg
* Reported Jun 22 6:00 AM — Jul 7 6:00 AM, Barranquilla, Weather by CustomWeather, © 2015

Note: Actual official high and low records may vary slightly from our data, if they occured in-between our weather recording intervals... More about our weather records

Advertising

Barranquilla weather history for previous 24 hours

 ConditionsComfort  
Time TempWeatherWind HumidityBarometerVisibility
6:00 AM
Tue, Jul 7
79 °FFog.3 mph89%29.83 "Hg5 mi
5:00 AM79 °FPassing clouds.3 mph89%29.82 "HgN/A
4:00 AM79 °FClear.6 mph89%29.81 "Hg10 mi
3:00 AM81 °FClear.5 mph84%29.80 "Hg10 mi
2:00 AM81 °FClear.8 mph79%29.80 "Hg10 mi
1:00 AM81 °FClear.12 mph79%29.81 "Hg10 mi
12:00 AM79 °FClear.8 mph89%29.82 "Hg10 mi
11:00 PM
Mon, Jul 6
79 °FClear.12 mph89%29.81 "Hg10 mi
10:00 PM79 °FPassing clouds.15 mph89%29.81 "HgN/A
9:00 PM81 °FPassing clouds.14 mph84%29.82 "HgN/A
8:00 PM81 °FPassing clouds.15 mph84%29.82 "HgN/A
7:00 PM81 °FPassing clouds.N/A84%29.81 "HgN/A
6:00 PM82 °FScattered clouds.16 mph74%29.81 "Hg3 mi
5:00 PM84 °FPartly sunny.21 mph70%29.78 "Hg3 mi
4:00 PM86 °FPartly sunny.18 mph70%29.79 "Hg3 mi
3:00 PM88 °FPartly sunny.17 mph66%29.78 "Hg5 mi
2:00 PM88 °FPartly sunny.17 mph66%29.81 "Hg2 mi
1:00 PM90 °FPartly sunny.21 mph63%29.83 "HgN/A
12:00 PM90 °FScattered clouds.14 mph67%29.83 "HgN/A
11:00 AM91 °FScattered clouds.13 mph67%29.85 "HgN/A
10:00 AM90 °FBroken clouds.6 mph71%29.85 "HgN/A
9:00 AM86 °FSunny.6 mph75%29.84 "Hg10 mi
8:00 AM84 °FSunny.5 mph79%29.83 "Hg10 mi
7:00 AM81 °FClear.9 mph84%29.82 "Hg5 mi
Weather by CustomWeather, © 2015

See weather overviewHow to use our weather pages